Simultaneous Nadir Overpasses (SNOs) Predictions

Prediction of SNOs between AQUA and METOP-C Satellite Orbit:

Table of predicted SNOs for the next 14.0 days since TLE Epoch: 4/5/2019
Index Date (AQUA) Time (AQUA) Lat,Lon (AQUA) SZA (AQUA ) Date (METOP-C) Time (METOP-C) Lat,Lon (METOP-C) SZA (METOP-C ) Distance(km) Time Diff (sec)
1 04/06/2019 00:35:05 73.37, 166.51 67.09 04/06/2019 00:33:56 73.32, 164.73 67.11 57.08 69
2 04/06/2019 01:24:39 -73.80, -26.77 112.47 04/06/2019 01:24:27 -73.82, -26.79 112.45 1.69 12
3 04/06/2019 02:14:08 73.89, 140.67 67.61 04/06/2019 02:15:06 73.90, 140.73 67.61 2.12 58
4 04/08/2019 20:09:26 73.70,-127.74 66.37 04/08/2019 20:08:13 73.67,-128.06 66.37 10.27 73
5 04/08/2019 20:58:54 -73.82, 39.64 113.52 04/08/2019 20:58:51 -73.83, 39.64 113.51 1.24 3
6 04/08/2019 21:48:23 73.90,-152.92 66.56 04/08/2019 21:49:30 73.90,-152.85 66.55 1.92 67
7 04/11/2019 15:43:42 73.77, -61.46 65.40 04/11/2019 15:42:35 73.77, -61.41 65.41 1.60 67
8 04/11/2019 16:33:09 -73.84, 106.03 114.55 04/11/2019 16:33:15 -73.84, 106.06 114.55 1.09 6
9 04/11/2019 17:22:40 74.02, -86.75 65.64 04/11/2019 17:23:52 74.00, -86.20 65.60 17.06 72
10 04/14/2019 11:17:56 73.79, 4.92 64.39 04/14/2019 11:16:58 73.78, 5.00 64.38 2.97 58
11 04/14/2019 12:07:23 -73.87, 172.41 115.55 04/14/2019 12:07:38 -73.85, 172.49 115.57 3.32 15
12 04/14/2019 12:57:00 74.36, -21.09 64.98 04/14/2019 12:58:08 74.35, -18.92 64.90 65.12 68
13 04/17/2019 06:52:10 73.78, 71.40 63.37 04/17/2019 06:51:22 73.78, 71.41 63.38 0.53 48
14 04/17/2019 07:41:37 -73.85,-121.12 116.57 04/17/2019 07:42:02 -73.86,-121.08 116.57 1.34 25




NCC Satellite Simultaneous Nadir Overpasses (SNOs) Prediction Service
